Location: Astronomy Club of Akron Observatory
(40.9700°N, 81.5606°W)
Time: 22:13:01
(UTC-04:00)

N. Korean satellite - Pass Details

Date: 24 February 2019
Orbit: 456 x 510 km, 97.2° (Epoch: 20 March)

Event Time Altitude Azimuth Distance (km) Brightness Sun altitude
Rises 05:47:29 0° 29° (NNE) 2,489 10.6 -16.0°
Reaches altitude 10° 05:50:04 10° 50° (NE) 1,604 9.9 -15.5°
Maximum altitude 05:52:25 17° 94° (E) 1,220 9.7 -15.1°
Drops below altitude 10° 05:54:45 10° 137° (SE) 1,591 9.8 -14.6°
Sets 05:57:17 0° 158° (SSE) 2,459 10.5 -14.1°
